• En España
  • Lista de países
  • Para 7 días
  • Temperatura del agua
  • Mapa Satelital
  • El tiempo en el mapa
  • Informadores
  • user-avatar
    Iniciar sesión

    Tiempo cada hora Vitebsk

    Hoy, 23 Mayo, Miércoles

    Tiempo Temperatura Precipitaciones Viento Presión Humedad
    00:00 +10°C° 0 mm 2 mps 752 mmHg 95%
    01:00 +9°C° 0 mm 2 mps 752 mmHg 95%
    02:00 +9°C° 0 mm 2 mps 752 mmHg 96%
    03:00 +9°C° 0 mm 2 mps 752 mmHg 95%
    04:00 +9°C° 0 mm 2 mps 752 mmHg 95%
    05:00 +10°C° 0 mm 2 mps 752 mmHg 95%
    06:00 +13°C° 0 mm 2 mps 752 mmHg 90%
    07:00 +15°C° 0 mm 2 mps 752 mmHg 84%
    08:00 +17°C° 0 mm 2 mps 752 mmHg 78%
    09:00 +18°C° 0,2 mm 2 mps 751 mmHg 74%
    10:00 +19°C° 0,2 mm 3 mps 751 mmHg 69%
    11:00 +21°C° 0,2 mm 3 mps 751 mmHg 64%
    12:00 +21°C° 0,9 mm 3 mps 751 mmHg 67%
    13:00 +21°C° 0,9 mm 3 mps 751 mmHg 70%
    14:00 +21°C° 0,9 mm 3 mps 751 mmHg 74%
    15:00 +21°C° 0,9 mm 3 mps 750 mmHg 75%
    16:00 +21°C° 0,9 mm 3 mps 750 mmHg 76%
    17:00 +21°C° 0,9 mm 3 mps 750 mmHg 77%
    18:00 +19°C° 0,8 mm 2 mps 750 mmHg 81%
    19:00 +18°C° 0,8 mm 1 mps 750 mmHg 85%
    20:00 +15°C° 0,8 mm 1 mps 750 mmHg 90%
    21:00 +15°C° 0 mm 1 mps 750 mmHg 91%
    22:00 +14°C° 0 mm 1 mps 750 mmHg 92%
    23:00 +13°C° 0 mm 1 mps 750 mmHg 93%

    Mañana, 24 Mayo, Jueves

    Tiempo Temperatura Precipitaciones Viento Presión Humedad
    00:00 +13°C° 0,1 mm 1 mps 750 mmHg 94%
    01:00 +12°C° 0,1 mm 2 mps 750 mmHg 95%
    02:00 +12°C° 0,1 mm 2 mps 750 mmHg 96%
    03:00 +12°C° 0 mm 2 mps 750 mmHg 97%
    04:00 +12°C° 0 mm 2 mps 750 mmHg 97%
    05:00 +12°C° 0 mm 2 mps 750 mmHg 97%
    06:00 +13°C° 0 mm 2 mps 750 mmHg 95%
    07:00 +13°C° 0 mm 3 mps 751 mmHg 92%
    08:00 +14°C° 0 mm 3 mps 751 mmHg 89%
    09:00 +16°C° 0,1 mm 3 mps 751 mmHg 86%
    10:00 +17°C° 0,1 mm 3 mps 751 mmHg 83%
    11:00 +18°C° 0,1 mm 3 mps 751 mmHg 80%
    12:00 +19°C° 0,4 mm 4 mps 751 mmHg 78%
    13:00 +20°C° 0,4 mm 4 mps 751 mmHg 75%
    14:00 +21°C° 0,4 mm 4 mps 751 mmHg 73%
    15:00 +20°C° 0,5 mm 4 mps 750 mmHg 75%
    16:00 +20°C° 0,5 mm 4 mps 750 mmHg 76%
    17:00 +20°C° 0,5 mm 4 mps 750 mmHg 78%
    18:00 +19°C° 0,5 mm 4 mps 750 mmHg 82%
    19:00 +18°C° 0,5 mm 4 mps 751 mmHg 85%
    20:00 +16°C° 0,5 mm 3 mps 751 mmHg 89%
    21:00 +16°C° 0,1 mm 3 mps 751 mmHg 91%
    22:00 +14°C° 0,1 mm 3 mps 751 mmHg 92%
    23:00 +13°C° 0,1 mm 3 mps 751 mmHg 93%

    Pasado mañana, 25 Mayo, Viernes

    Tiempo Temperatura Precipitaciones Viento Presión Humedad
    00:00 +13°C° 0 mm 3 mps 752 mmHg 94%
    01:00 +13°C° 0 mm 3 mps 752 mmHg 94%
    02:00 +12°C° 0 mm 3 mps 752 mmHg 95%
    03:00 +12°C° 0 mm 3 mps 753 mmHg 95%
    04:00 +12°C° 0 mm 3 mps 753 mmHg 95%
    05:00 +12°C° 0 mm 3 mps 753 mmHg 95%
    06:00 +14°C° 0 mm 4 mps 754 mmHg 90%
    07:00 +15°C° 0 mm 4 mps 754 mmHg 85%
    08:00 +17°C° 0 mm 4 mps 755 mmHg 80%
    09:00 +19°C° 0 mm 4 mps 755 mmHg 73%
    10:00 +20°C° 0 mm 4 mps 755 mmHg 65%
    11:00 +21°C° 0 mm 4 mps 755 mmHg 58%
    12:00 +22°C° 0 mm 4 mps 756 mmHg 55%
    13:00 +22°C° 0 mm 4 mps 756 mmHg 52%
    14:00 +22°C° 0 mm 4 mps 756 mmHg 49%
    15:00 +22°C° 0 mm 4 mps 756 mmHg 51%
    16:00 +22°C° 0 mm 3 mps 756 mmHg 52%
    17:00 +21°C° 0 mm 3 mps 756 mmHg 54%
    18:00 +19°C° 0 mm 3 mps 756 mmHg 61%
    19:00 +17°C° 0 mm 3 mps 756 mmHg 68%
    20:00 +15°C° 0 mm 2 mps 756 mmHg 74%
    21:00 +14°C° 0 mm 2 mps 757 mmHg 76%
    22:00 +13°C° 0 mm 2 mps 757 mmHg 77%
    23:00 +12°C° 0 mm 2 mps 758 mmHg 78%

    26 Mayo, Sábado

    Tiempo Temperatura Precipitaciones Viento Presión Humedad
    00:00 +12°C° 0 mm 2 mps 758 mmHg 80%
    01:00 +10°C° 0 mm 2 mps 758 mmHg 81%
    02:00 +10°C° 0 mm 2 mps 759 mmHg 82%
    03:00 +10°C° 0 mm 2 mps 759 mmHg 83%
    04:00 +10°C° 0 mm 2 mps 759 mmHg 83%
    05:00 +10°C° 0 mm 2 mps 759 mmHg 83%
    06:00 +12°C° 0 mm 3 mps 759 mmHg 77%
    07:00 +13°C° 0 mm 3 mps 760 mmHg 71%
    08:00 +16°C° 0 mm 3 mps 760 mmHg 64%
    09:00 +17°C° 0 mm 3 mps 760 mmHg 61%
    10:00 +18°C° 0 mm 3 mps 760 mmHg 57%
    11:00 +20°C° 0 mm 4 mps 760 mmHg 53%
    12:00 +20°C° 0 mm 4 mps 760 mmHg 52%
    13:00 +20°C° 0 mm 4 mps 759 mmHg 51%
    14:00 +21°C° 0 mm 4 mps 759 mmHg 49%
    15:00 +21°C° 0 mm 4 mps 759 mmHg 52%
    16:00 +20°C° 0 mm 4 mps 758 mmHg 54%
    17:00 +20°C° 0 mm 3 mps 758 mmHg 57%
    18:00 +18°C° 0 mm 3 mps 758 mmHg 64%
    19:00 +16°C° 0 mm 2 mps 758 mmHg 71%
    20:00 +15°C° 0 mm 2 mps 758 mmHg 78%
    21:00 +14°C° 0 mm 2 mps 758 mmHg 80%
    22:00 +13°C° 0 mm 2 mps 758 mmHg 82%
    23:00 +12°C° 0 mm 2 mps 758 mmHg 84%

    27 Mayo, Domingo

    Tiempo Temperatura Precipitaciones Viento Presión Humedad
    00:00 +12°C° 0 mm 2 mps 758 mmHg 85%
    01:00 +10°C° 0 mm 2 mps 758 mmHg 86%
    02:00 +10°C° 0 mm 2 mps 758 mmHg 87%
    03:00 +10°C° 0 mm 2 mps 758 mmHg 87%
    04:00 +10°C° 0 mm 2 mps 758 mmHg 86%
    05:00 +10°C° 0 mm 2 mps 758 mmHg 86%
    06:00 +13°C° 0 mm 2 mps 758 mmHg 79%
    07:00 +15°C° 0 mm 2 mps 758 mmHg 73%
    08:00 +17°C° 0 mm 2 mps 758 mmHg 66%
    09:00 +18°C° 0 mm 2 mps 758 mmHg 61%
    10:00 +19°C° 0 mm 2 mps 757 mmHg 56%
    11:00 +20°C° 0 mm 2 mps 757 mmHg 51%
    12:00 +22°C° 0 mm 1 mps 757 mmHg 50%
    13:00 +23°C° 0 mm 1 mps 756 mmHg 48%
    14:00 +23°C° 0 mm 1 mps 756 mmHg 46%
    15:00 +23°C° 0 mm 1 mps 756 mmHg 48%
    16:00 +23°C° 0 mm 1 mps 755 mmHg 49%
    17:00 +23°C° 0 mm 1 mps 755 mmHg 50%
    18:00 +21°C° 0 mm 1 mps 755 mmHg 57%
    19:00 +19°C° 0 mm 1 mps 755 mmHg 64%
    20:00 +18°C° 0 mm 1 mps 755 mmHg 71%
    21:00 +16°C° 0 mm 1 mps 755 mmHg 73%
    22:00 +15°C° 0 mm 1 mps 755 mmHg 76%
    23:00 +14°C° 0 mm 1 mps 756 mmHg 79%

    28 Mayo, Lunes

    Tiempo Temperatura Precipitaciones Viento Presión Humedad
    00:00 +13°C° 0 mm 1 mps 756 mmHg 81%
    01:00 +13°C° 0 mm 2 mps 756 mmHg 82%
    02:00 +13°C° 0 mm 2 mps 756 mmHg 84%
    03:00 +12°C° 0 mm 2 mps 756 mmHg 83%
    04:00 +12°C° 0 mm 2 mps 757 mmHg 82%
    05:00 +12°C° 0 mm 2 mps 757 mmHg 81%
    06:00 +14°C° 0 mm 2 mps 757 mmHg 76%
    07:00 +15°C° 0 mm 2 mps 757 mmHg 70%
    08:00 +17°C° 0 mm 2 mps 757 mmHg 65%
    09:00 +18°C° 0 mm 2 mps 757 mmHg 60%
    10:00 +20°C° 0 mm 3 mps 758 mmHg 54%
    11:00 +21°C° 0 mm 3 mps 758 mmHg 48%
    12:00 +23°C° 0 mm 2 mps 758 mmHg 46%
    13:00 +24°C° 0 mm 2 mps 758 mmHg 44%
    14:00 +24°C° 0 mm 1 mps 757 mmHg 42%
    15:00 +24°C° 0 mm 1 mps 757 mmHg 44%
    16:00 +24°C° 0 mm 1 mps 757 mmHg 45%
    17:00 +24°C° 0 mm 1 mps 757 mmHg 46%
    18:00 +22°C° 0 mm 1 mps 756 mmHg 53%
    19:00 +19°C° 0 mm 1 mps 756 mmHg 60%
    20:00 +16°C° 0 mm 1 mps 756 mmHg 66%
    21:00 +15°C° 0 mm 1 mps 756 mmHg 69%
    22:00 +15°C° 0 mm 1 mps 756 mmHg 71%
    23:00 +14°C° 0 mm 1 mps 756 mmHg 74%
    Mostrar más